Starlink 6095

operational
NORAD ID: 56101 Int'l Des: 2023-046 Owner: SPXS Country: US Constellation: starlink
LEOCIRCULAR

About Starlink 6095

Description loading...

Live Position

Loading 3D Globe...

Upcoming Passes

Altitude History

Altitude vs Time

uPlot chart will show altitude changes over time

Two-Line Element Set

1 56101U 23046J 26018.84728520 .00000138 00000-0 25320-4 0 9999
2 56101 43.0040 69.8487 0001577 290.7965 69.2708 15.02534605154560
Epoch: Jan 18, 2026 • Age: 15 hours

Current Status

Altitude 563.2 km
Velocity 7.59 km/s
Sub-Earth Point 43.16°N, 129.47°W
Launch Date Mar 29, 2023
Age 2.8 years
Type internet

Technical Details

Classification Payload
Mass 305.00 kg
Dry Mass 290.00 kg
Total Mass 305.00 kg
Length 0.20 m
Diameter 2.80 m
Span 9.00 m
Shape Box + pan
Manufacturer SPXS
Bus Type Starlink
Phase Status In Orbit
Owner/State SPXS/US

Large Constellations

Loading constellations...